FID,VOYAGENAME,LATITUDE_DEGNORTH,LONGITUDE_DEGEAST,DATE_TIME_UTC,GPS_QC,WTR_DEPTH_M,WTR_DEPTH_QC,MARLIN_ID,GEO_LOCATION
FR199202_VOYAGE.1992-02-06 04:40:00,FR199202,-17.977,146.321,1992-02-06 04:40:00,32,26,32,3561,"LINESTRING (146.321 -17.977, 146.316 -17.961)"
FR199202_VOYAGE.1992-02-06 04:45:00,FR199202,-17.961,146.316,1992-02-06 04:45:00,32,26,32,3561,"LINESTRING (146.316 -17.961, 146.314 -17.945)"
FR199202_VOYAGE.1992-02-06 04:50:00,FR199202,-17.945,146.314,1992-02-06 04:50:00,32,26,32,3561,"LINESTRING (146.314 -17.945, 146.31 -17.929)"
FR199202_VOYAGE.1992-02-06 04:55:00,FR199202,-17.929,146.31,1992-02-06 04:55:00,32,26,32,3561,"LINESTRING (146.31 -17.929, 146.307 -17.912)"
FR199202_VOYAGE.1992-02-06 05:00:00,FR199202,-17.912,146.307,1992-02-06 05:00:00,32,26,32,3561,"LINESTRING (146.307 -17.912, 146.304 -17.896)"
FR199202_VOYAGE.1992-02-06 05:05:00,FR199202,-17.896,146.304,1992-02-06 05:05:00,32,26,32,3561,"LINESTRING (146.304 -17.896, 146.3 -17.88)"
FR199202_VOYAGE.1992-02-06 05:10:00,FR199202,-17.88,146.3,1992-02-06 05:10:00,32,26,32,3561,"LINESTRING (146.3 -17.88, 146.296 -17.864)"
FR199202_VOYAGE.1992-02-06 05:15:00,FR199202,-17.864,146.296,1992-02-06 05:15:00,32,27,32,3561,"LINESTRING (146.296 -17.864, 146.293 -17.848)"
FR199202_VOYAGE.1992-02-06 05:20:00,FR199202,-17.848,146.293,1992-02-06 05:20:00,32,27,32,3561,"LINESTRING (146.293 -17.848, 146.29 -17.832)"
FR199202_VOYAGE.1992-02-06 05:25:00,FR199202,-17.832,146.29,1992-02-06 05:25:00,32,28,32,3561,"LINESTRING (146.29 -17.832, 146.287 -17.816)"
FR199202_VOYAGE.1992-02-06 05:30:00,FR199202,-17.816,146.287,1992-02-06 05:30:00,32,27,32,3561,"LINESTRING (146.287 -17.816, 146.283 -17.8)"
FR199202_VOYAGE.1992-02-06 05:35:00,FR199202,-17.8,146.283,1992-02-06 05:35:00,32,28,32,3561,"LINESTRING (146.283 -17.8, 146.28 -17.784)"
FR199202_VOYAGE.1992-02-06 05:40:00,FR199202,-17.784,146.28,1992-02-06 05:40:00,32,28,32,3561,"LINESTRING (146.28 -17.784, 146.276 -17.768)"
FR199202_VOYAGE.1992-02-06 05:45:00,FR199202,-17.768,146.276,1992-02-06 05:45:00,32,28,32,3561,"LINESTRING (146.276 -17.768, 146.273 -17.752)"
FR199202_VOYAGE.1992-02-06 05:50:00,FR199202,-17.752,146.273,1992-02-06 05:50:00,32,29,32,3561,"LINESTRING (146.273 -17.752, 146.27 -17.736)"
FR199202_VOYAGE.1992-02-06 05:55:00,FR199202,-17.736,146.27,1992-02-06 05:55:00,32,30,32,3561,"LINESTRING (146.27 -17.736, 146.266 -17.72)"
FR199202_VOYAGE.1992-02-06 06:00:00,FR199202,-17.72,146.266,1992-02-06 06:00:00,32,30,32,3561,"LINESTRING (146.266 -17.72, 146.262 -17.704)"
FR199202_VOYAGE.1992-02-06 06:05:00,FR199202,-17.704,146.262,1992-02-06 06:05:00,32,29,32,3561,"LINESTRING (146.262 -17.704, 146.258 -17.688)"
FR199202_VOYAGE.1992-02-06 06:10:00,FR199202,-17.688,146.258,1992-02-06 06:10:00,32,29,32,3561,"LINESTRING (146.258 -17.688, 146.253 -17.673)"
FR199202_VOYAGE.1992-02-06 06:15:00,FR199202,-17.673,146.253,1992-02-06 06:15:00,32,29,32,3561,"LINESTRING (146.253 -17.673, 146.25 -17.657)"
FR199202_VOYAGE.1992-02-06 06:20:00,FR199202,-17.657,146.25,1992-02-06 06:20:00,32,28,32,3561,"LINESTRING (146.25 -17.657, 146.245 -17.641)"
FR199202_VOYAGE.1992-02-06 06:25:00,FR199202,-17.641,146.245,1992-02-06 06:25:00,32,28,32,3561,"LINESTRING (146.245 -17.641, 146.242 -17.625)"
FR199202_VOYAGE.1992-02-06 06:30:00,FR199202,-17.625,146.242,1992-02-06 06:30:00,32,28,32,3561,"LINESTRING (146.242 -17.625, 146.238 -17.608)"
FR199202_VOYAGE.1992-02-06 06:35:00,FR199202,-17.608,146.238,1992-02-06 06:35:00,32,27,32,3561,"LINESTRING (146.238 -17.608, 146.233 -17.592)"
FR199202_VOYAGE.1992-02-06 06:40:00,FR199202,-17.592,146.233,1992-02-06 06:40:00,32,27,32,3561,"LINESTRING (146.233 -17.592, 146.229 -17.577)"
FR199202_VOYAGE.1992-02-06 06:45:00,FR199202,-17.577,146.229,1992-02-06 06:45:00,32,27,32,3561,"LINESTRING (146.229 -17.577, 146.225 -17.561)"
FR199202_VOYAGE.1992-02-06 06:50:00,FR199202,-17.561,146.225,1992-02-06 06:50:00,32,26,32,3561,"LINESTRING (146.225 -17.561, 146.221 -17.545)"
FR199202_VOYAGE.1992-02-06 06:55:00,FR199202,-17.545,146.221,1992-02-06 06:55:00,32,26,32,3561,"LINESTRING (146.221 -17.545, 146.216 -17.53)"
FR199202_VOYAGE.1992-02-06 07:00:00,FR199202,-17.53,146.216,1992-02-06 07:00:00,32,27,32,3561,"LINESTRING (146.216 -17.53, 146.213 -17.513)"
FR199202_VOYAGE.1992-02-06 07:05:00,FR199202,-17.513,146.213,1992-02-06 07:05:00,32,27,32,3561,"LINESTRING (146.213 -17.513, 146.208 -17.497)"
FR199202_VOYAGE.1992-02-06 07:10:00,FR199202,-17.497,146.208,1992-02-06 07:10:00,32,27,32,3561,"LINESTRING (146.208 -17.497, 146.204 -17.481)"
FR199202_VOYAGE.1992-02-06 07:15:00,FR199202,-17.481,146.204,1992-02-06 07:15:00,32,27,32,3561,"LINESTRING (146.204 -17.481, 146.2 -17.466)"
FR199202_VOYAGE.1992-02-06 07:20:00,FR199202,-17.466,146.2,1992-02-06 07:20:00,32,26,32,3561,"LINESTRING (146.2 -17.466, 146.196 -17.45)"
FR199202_VOYAGE.1992-02-06 07:25:00,FR199202,-17.45,146.196,1992-02-06 07:25:00,32,26,32,3561,"LINESTRING (146.196 -17.45, 146.191 -17.434)"
FR199202_VOYAGE.1992-02-06 07:30:00,FR199202,-17.434,146.191,1992-02-06 07:30:00,32,27,32,3561,"LINESTRING (146.191 -17.434, 146.187 -17.418)"
FR199202_VOYAGE.1992-02-06 07:35:00,FR199202,-17.418,146.187,1992-02-06 07:35:00,32,25,32,3561,"LINESTRING (146.187 -17.418, 146.183 -17.402)"
FR199202_VOYAGE.1992-02-06 07:40:00,FR199202,-17.402,146.183,1992-02-06 07:40:00,32,25,32,3561,"LINESTRING (146.183 -17.402, 146.179 -17.386)"
FR199202_VOYAGE.1992-02-06 07:45:00,FR199202,-17.386,146.179,1992-02-06 07:45:00,32,25,32,3561,"LINESTRING (146.179 -17.386, 146.175 -17.371)"
FR199202_VOYAGE.1992-02-06 07:50:00,FR199202,-17.371,146.175,1992-02-06 07:50:00,32,25,32,3561,"LINESTRING (146.175 -17.371, 146.171 -17.355)"
FR199202_VOYAGE.1992-02-06 07:55:00,FR199202,-17.355,146.171,1992-02-06 07:55:00,32,25,32,3561,"LINESTRING (146.171 -17.355, 146.167 -17.34)"
FR199202_VOYAGE.1992-02-06 08:00:00,FR199202,-17.34,146.167,1992-02-06 08:00:00,32,25,32,3561,"LINESTRING (146.167 -17.34, 146.162 -17.324)"
FR199202_VOYAGE.1992-02-06 08:05:00,FR199202,-17.324,146.162,1992-02-06 08:05:00,32,26,32,3561,"LINESTRING (146.162 -17.324, 146.159 -17.308)"
FR199202_VOYAGE.1992-02-06 08:10:00,FR199202,-17.308,146.159,1992-02-06 08:10:00,32,26,32,3561,"LINESTRING (146.159 -17.308, 146.155 -17.292)"
FR199202_VOYAGE.1992-02-06 08:15:00,FR199202,-17.292,146.155,1992-02-06 08:15:00,32,26,32,3561,"LINESTRING (146.155 -17.292, 146.151 -17.276)"
FR199202_VOYAGE.1992-02-06 08:20:00,FR199202,-17.276,146.151,1992-02-06 08:20:00,32,26,32,3561,"LINESTRING (146.151 -17.276, 146.147 -17.261)"
FR199202_VOYAGE.1992-02-06 08:25:00,FR199202,-17.261,146.147,1992-02-06 08:25:00,32,26,32,3561,"LINESTRING (146.147 -17.261, 146.143 -17.245)"
FR199202_VOYAGE.1992-02-06 08:30:00,FR199202,-17.245,146.143,1992-02-06 08:30:00,32,26,32,3561,"LINESTRING (146.143 -17.245, 146.139 -17.229)"
FR199202_VOYAGE.1992-02-06 08:35:00,FR199202,-17.229,146.139,1992-02-06 08:35:00,32,27,32,3561,"LINESTRING (146.139 -17.229, 146.136 -17.213)"
FR199202_VOYAGE.1992-02-06 08:40:00,FR199202,-17.213,146.136,1992-02-06 08:40:00,32,26,32,3561,"LINESTRING (146.136 -17.213, 146.132 -17.197)"
FR199202_VOYAGE.1992-02-06 08:45:00,FR199202,-17.197,146.132,1992-02-06 08:45:00,32,27,32,3561,"LINESTRING (146.132 -17.197, 146.129 -17.181)"
FR199202_VOYAGE.1992-02-06 08:50:00,FR199202,-17.181,146.129,1992-02-06 08:50:00,32,28,32,3561,"LINESTRING (146.129 -17.181, 146.125 -17.165)"
FR199202_VOYAGE.1992-02-06 08:55:00,FR199202,-17.165,146.125,1992-02-06 08:55:00,32,27,32,3561,"LINESTRING (146.125 -17.165, 146.12 -17.149)"
FR199202_VOYAGE.1992-02-06 09:00:00,FR199202,-17.149,146.12,1992-02-06 09:00:00,32,29,32,3561,"LINESTRING (146.12 -17.149, 146.115 -17.133)"
FR199202_VOYAGE.1992-02-06 09:05:00,FR199202,-17.133,146.115,1992-02-06 09:05:00,32,30,32,3561,"LINESTRING (146.115 -17.133, 146.111 -17.118)"
FR199202_VOYAGE.1992-02-06 09:10:00,FR199202,-17.118,146.111,1992-02-06 09:10:00,32,29,32,3561,"LINESTRING (146.111 -17.118, 146.107 -17.102)"
FR199202_VOYAGE.1992-02-06 09:15:00,FR199202,-17.102,146.107,1992-02-06 09:15:00,32,32,32,3561,"LINESTRING (146.107 -17.102, 146.103 -17.086)"
FR199202_VOYAGE.1992-02-06 09:20:00,FR199202,-17.086,146.103,1992-02-06 09:20:00,32,30,32,3561,"LINESTRING (146.103 -17.086, 146.099 -17.07)"
FR199202_VOYAGE.1992-02-06 09:25:00,FR199202,-17.07,146.099,1992-02-06 09:25:00,32,31,32,3561,"LINESTRING (146.099 -17.07, 146.096 -17.054)"
FR199202_VOYAGE.1992-02-06 09:30:00,FR199202,-17.054,146.096,1992-02-06 09:30:00,32,31,32,3561,"LINESTRING (146.096 -17.054, 146.091 -17.038)"
FR199202_VOYAGE.1992-02-06 09:35:00,FR199202,-17.038,146.091,1992-02-06 09:35:00,32,33,32,3561,"LINESTRING (146.091 -17.038, 146.088 -17.021)"
FR199202_VOYAGE.1992-02-06 09:40:00,FR199202,-17.021,146.088,1992-02-06 09:40:00,32,34,32,3561,"LINESTRING (146.088 -17.021, 146.084 -17.006)"
FR199202_VOYAGE.1992-02-06 09:45:00,FR199202,-17.006,146.084,1992-02-06 09:45:00,32,34,32,3561,"LINESTRING (146.084 -17.006, 146.081 -16.99)"
FR199202_VOYAGE.1992-02-06 09:50:00,FR199202,-16.99,146.081,1992-02-06 09:50:00,32,35,32,3561,"LINESTRING (146.081 -16.99, 146.079 -16.974)"
FR199202_VOYAGE.1992-02-06 09:55:00,FR199202,-16.974,146.079,1992-02-06 09:55:00,32,36,32,3561,"LINESTRING (146.079 -16.974, 146.077 -16.958)"
FR199202_VOYAGE.1992-02-06 10:00:00,FR199202,-16.958,146.077,1992-02-06 10:00:00,32,36,32,3561,"LINESTRING (146.077 -16.958, 146.073 -16.941)"
FR199202_VOYAGE.1992-02-06 10:05:00,FR199202,-16.941,146.073,1992-02-06 10:05:00,32,36,32,3561,"LINESTRING (146.073 -16.941, 146.069 -16.926)"
FR199202_VOYAGE.1992-02-06 10:10:00,FR199202,-16.926,146.069,1992-02-06 10:10:00,32,37,32,3561,"LINESTRING (146.069 -16.926, 146.065 -16.91)"
FR199202_VOYAGE.1992-02-06 10:15:00,FR199202,-16.91,146.065,1992-02-06 10:15:00,32,38,32,3561,"LINESTRING (146.065 -16.91, 146.062 -16.894)"
FR199202_VOYAGE.1992-02-06 10:20:00,FR199202,-16.894,146.062,1992-02-06 10:20:00,32,39,32,3561,"LINESTRING (146.062 -16.894, 146.059 -16.878)"
FR199202_VOYAGE.1992-02-06 10:25:00,FR199202,-16.878,146.059,1992-02-06 10:25:00,32,39,32,3561,"LINESTRING (146.059 -16.878, 146.056 -16.862)"
FR199202_VOYAGE.1992-02-06 10:30:00,FR199202,-16.862,146.056,1992-02-06 10:30:00,32,39,32,3561,"LINESTRING (146.056 -16.862, 146.066 -16.848)"
FR199202_VOYAGE.1992-02-06 10:35:00,FR199202,-16.848,146.066,1992-02-06 10:35:00,32,40,32,3561,"LINESTRING (146.066 -16.848, 146.077 -16.835)"
FR199202_VOYAGE.1992-02-06 10:40:00,FR199202,-16.835,146.077,1992-02-06 10:40:00,32,41,32,3561,"LINESTRING (146.077 -16.835, 146.088 -16.821)"
FR199202_VOYAGE.1992-02-06 10:45:00,FR199202,-16.821,146.088,1992-02-06 10:45:00,32,42,32,3561,"LINESTRING (146.088 -16.821, 146.098 -16.808)"
FR199202_VOYAGE.1992-02-06 10:50:00,FR199202,-16.808,146.098,1992-02-06 10:50:00,32,44,32,3561,"LINESTRING (146.098 -16.808, 146.108 -16.793)"
FR199202_VOYAGE.1992-02-06 10:55:00,FR199202,-16.793,146.108,1992-02-06 10:55:00,32,46,32,3561,"LINESTRING (146.108 -16.793, 146.119 -16.78)"
FR199202_VOYAGE.1992-02-06 11:00:00,FR199202,-16.78,146.119,1992-02-06 11:00:00,32,49,32,3561,"LINESTRING (146.119 -16.78, 146.13 -16.767)"
FR199202_VOYAGE.1992-02-06 11:05:00,FR199202,-16.767,146.13,1992-02-06 11:05:00,32,52,32,3561,"LINESTRING (146.13 -16.767, 146.141 -16.754)"
FR199202_VOYAGE.1992-02-06 11:10:00,FR199202,-16.754,146.141,1992-02-06 11:10:00,32,55,32,3561,"LINESTRING (146.141 -16.754, 146.151 -16.741)"
FR199202_VOYAGE.1992-02-06 11:15:00,FR199202,-16.741,146.151,1992-02-06 11:15:00,32,59,32,3561,"LINESTRING (146.151 -16.741, 146.162 -16.728)"
FR199202_VOYAGE.1992-02-06 11:20:00,FR199202,-16.728,146.162,1992-02-06 11:20:00,32,63,32,3561,"LINESTRING (146.162 -16.728, 146.172 -16.714)"
FR199202_VOYAGE.1992-02-06 11:25:00,FR199202,-16.714,146.172,1992-02-06 11:25:00,32,64,32,3561,"LINESTRING (146.172 -16.714, 146.183 -16.701)"
FR199202_VOYAGE.1992-02-06 11:30:00,FR199202,-16.701,146.183,1992-02-06 11:30:00,32,65,32,3561,"LINESTRING (146.183 -16.701, 146.194 -16.689)"
FR199202_VOYAGE.1992-02-06 11:35:00,FR199202,-16.689,146.194,1992-02-06 11:35:00,32,64,32,3561,"LINESTRING (146.194 -16.689, 146.204 -16.676)"
FR199202_VOYAGE.1992-02-06 11:40:00,FR199202,-16.676,146.204,1992-02-06 11:40:00,32,66,32,3561,"LINESTRING (146.204 -16.676, 146.215 -16.664)"
FR199202_VOYAGE.1992-02-06 11:45:00,FR199202,-16.664,146.215,1992-02-06 11:45:00,32,66,32,3561,"LINESTRING (146.215 -16.664, 146.225 -16.651)"
FR199202_VOYAGE.1992-02-06 11:50:00,FR199202,-16.651,146.225,1992-02-06 11:50:00,32,70,32,3561,"LINESTRING (146.225 -16.651, 146.236 -16.638)"
FR199202_VOYAGE.1992-02-06 11:55:00,FR199202,-16.638,146.236,1992-02-06 11:55:00,32,73,32,3561,"LINESTRING (146.236 -16.638, 146.244 -16.624)"
FR199202_VOYAGE.1992-02-06 12:00:00,FR199202,-16.624,146.244,1992-02-06 12:00:00,32,75,32,3561,"LINESTRING (146.244 -16.624, 146.244 -16.609)"
FR199202_VOYAGE.1992-02-06 12:05:00,FR199202,-16.609,146.244,1992-02-06 12:05:00,32,81,32,3561,"LINESTRING (146.244 -16.609, 146.24 -16.594)"
FR199202_VOYAGE.1992-02-06 12:10:00,FR199202,-16.594,146.24,1992-02-06 12:10:00,32,142,32,3561,"LINESTRING (146.24 -16.594, 146.238 -16.578)"
FR199202_VOYAGE.1992-02-06 12:15:00,FR199202,-16.578,146.238,1992-02-06 12:15:00,32,214,32,3561,"LINESTRING (146.238 -16.578, 146.167 -16.235)"
FR199202_VOYAGE.1992-02-06 14:05:00,FR199202,-16.235,146.167,1992-02-06 14:05:00,32,1307,32,3561,"LINESTRING (146.167 -16.235, 146.163 -16.219)"
FR199202_VOYAGE.1992-02-06 14:10:00,FR199202,-16.219,146.163,1992-02-06 14:10:00,32,1306,32,3561,"LINESTRING (146.163 -16.219, 146.16 -16.204)"
FR199202_VOYAGE.1992-02-06 14:15:00,FR199202,-16.204,146.16,1992-02-06 14:15:00,32,1352,32,3561,"LINESTRING (146.16 -16.204, 146.156 -16.188)"
FR199202_VOYAGE.1992-02-06 14:20:00,FR199202,-16.188,146.156,1992-02-06 14:20:00,32,1361,32,3561,"LINESTRING (146.156 -16.188, 146.151 -16.172)"
FR199202_VOYAGE.1992-02-06 14:25:00,FR199202,-16.172,146.151,1992-02-06 14:25:00,32,1382,32,3561,"LINESTRING (146.151 -16.172, 146.148 -16.156)"
FR199202_VOYAGE.1992-02-06 14:30:00,FR199202,-16.156,146.148,1992-02-06 14:30:00,32,1389,32,3561,"LINESTRING (146.148 -16.156, 146.144 -16.14)"
FR199202_VOYAGE.1992-02-06 14:35:00,FR199202,-16.14,146.144,1992-02-06 14:35:00,32,1377,32,3561,"LINESTRING (146.144 -16.14, 146.14 -16.125)"
FR199202_VOYAGE.1992-02-06 14:40:00,FR199202,-16.125,146.14,1992-02-06 14:40:00,32,1403,32,3561,"LINESTRING (146.14 -16.125, 146.137 -16.108)"
FR199202_VOYAGE.1992-02-06 14:45:00,FR199202,-16.108,146.137,1992-02-06 14:45:00,32,1431,32,3561,"LINESTRING (146.137 -16.108, 146.133 -16.092)"
FR199202_VOYAGE.1992-02-06 14:50:00,FR199202,-16.092,146.133,1992-02-06 14:50:00,32,1453,32,3561,"LINESTRING (146.133 -16.092, 146.129 -16.077)"
FR199202_VOYAGE.1992-02-06 14:55:00,FR199202,-16.077,146.129,1992-02-06 14:55:00,32,1507,32,3561,"LINESTRING (146.129 -16.077, 146.125 -16.061)"
FR199202_VOYAGE.1992-02-06 15:00:00,FR199202,-16.061,146.125,1992-02-06 15:00:00,32,1539,32,3561,"LINESTRING (146.125 -16.061, 146.122 -16.045)"
FR199202_VOYAGE.1992-02-06 15:05:00,FR199202,-16.045,146.122,1992-02-06 15:05:00,32,1539,32,3561,"LINESTRING (146.122 -16.045, 146.12 -16.03)"
FR199202_VOYAGE.1992-02-06 15:10:00,FR199202,-16.03,146.12,1992-02-06 15:10:00,32,1588,32,3561,"LINESTRING (146.12 -16.03, 146.118 -16.013)"
FR199202_VOYAGE.1992-02-06 15:15:00,FR199202,-16.013,146.118,1992-02-06 15:15:00,32,1603,32,3561,"LINESTRING (146.118 -16.013, 146.114 -15.997)"
FR199202_VOYAGE.1992-02-06 15:20:00,FR199202,-15.997,146.114,1992-02-06 15:20:00,32,1640,32,3561,"LINESTRING (146.114 -15.997, 146.112 -15.981)"
FR199202_VOYAGE.1992-02-06 15:25:00,FR199202,-15.981,146.112,1992-02-06 15:25:00,32,1656,32,3561,"LINESTRING (146.112 -15.981, 146.11 -15.966)"
FR199202_VOYAGE.1992-02-06 15:30:00,FR199202,-15.966,146.11,1992-02-06 15:30:00,32,1714,32,3561,"LINESTRING (146.11 -15.966, 146.108 -15.95)"
FR199202_VOYAGE.1992-02-06 15:35:00,FR199202,-15.95,146.108,1992-02-06 15:35:00,32,1754,32,3561,"LINESTRING (146.108 -15.95, 146.106 -15.934)"
FR199202_VOYAGE.1992-02-06 15:40:00,FR199202,-15.934,146.106,1992-02-06 15:40:00,32,1762,32,3561,"LINESTRING (146.106 -15.934, 146.103 -15.919)"
FR199202_VOYAGE.1992-02-06 15:45:00,FR199202,-15.919,146.103,1992-02-06 15:45:00,32,1770,32,3561,"LINESTRING (146.103 -15.919, 146.101 -15.902)"
FR199202_VOYAGE.1992-02-06 15:50:00,FR199202,-15.902,146.101,1992-02-06 15:50:00,32,1790,32,3561,"LINESTRING (146.101 -15.902, 146.099 -15.887)"
FR199202_VOYAGE.1992-02-06 15:55:00,FR199202,-15.887,146.099,1992-02-06 15:55:00,32,1804,32,3561,"LINESTRING (146.099 -15.887, 146.097 -15.871)"
FR199202_VOYAGE.1992-02-06 16:00:00,FR199202,-15.871,146.097,1992-02-06 16:00:00,32,1807,32,3561,"LINESTRING (146.097 -15.871, 146.095 -15.855)"
FR199202_VOYAGE.1992-02-06 16:05:00,FR199202,-15.855,146.095,1992-02-06 16:05:00,32,1797,32,3561,"LINESTRING (146.095 -15.855, 146.093 -15.839)"
FR199202_VOYAGE.1992-02-06 16:10:00,FR199202,-15.839,146.093,1992-02-06 16:10:00,32,1829,32,3561,"LINESTRING (146.093 -15.839, 146.091 -15.823)"
FR199202_VOYAGE.1992-02-06 16:15:00,FR199202,-15.823,146.091,1992-02-06 16:15:00,32,1820,32,3561,"LINESTRING (146.091 -15.823, 146.089 -15.807)"
FR199202_VOYAGE.1992-02-06 16:20:00,FR199202,-15.807,146.089,1992-02-06 16:20:00,32,1845,32,3561,"LINESTRING (146.089 -15.807, 146.087 -15.791)"
FR199202_VOYAGE.1992-02-06 16:25:00,FR199202,-15.791,146.087,1992-02-06 16:25:00,32,1846,32,3561,"LINESTRING (146.087 -15.791, 146.085 -15.774)"
FR199202_VOYAGE.1992-02-06 16:30:00,FR199202,-15.774,146.085,1992-02-06 16:30:00,32,1859,32,3561,"LINESTRING (146.085 -15.774, 146.084 -15.758)"
FR199202_VOYAGE.1992-02-06 16:35:00,FR199202,-15.758,146.084,1992-02-06 16:35:00,32,1882,32,3561,"LINESTRING (146.084 -15.758, 146.081 -15.742)"
FR199202_VOYAGE.1992-02-06 16:40:00,FR199202,-15.742,146.081,1992-02-06 16:40:00,32,1914,32,3561,"LINESTRING (146.081 -15.742, 146.079 -15.725)"
FR199202_VOYAGE.1992-02-06 16:45:00,FR199202,-15.725,146.079,1992-02-06 16:45:00,32,1928,32,3561,"LINESTRING (146.079 -15.725, 146.077 -15.709)"
FR199202_VOYAGE.1992-02-06 16:50:00,FR199202,-15.709,146.077,1992-02-06 16:50:00,32,1933,32,3561,"LINESTRING (146.077 -15.709, 146.075 -15.693)"
FR199202_VOYAGE.1992-02-06 16:55:00,FR199202,-15.693,146.075,1992-02-06 16:55:00,32,1956,32,3561,"LINESTRING (146.075 -15.693, 146.072 -15.677)"
FR199202_VOYAGE.1992-02-06 17:00:00,FR199202,-15.677,146.072,1992-02-06 17:00:00,32,1975,32,3561,"LINESTRING (146.072 -15.677, 146.069 -15.661)"
FR199202_VOYAGE.1992-02-06 17:05:00,FR199202,-15.661,146.069,1992-02-06 17:05:00,32,1984,32,3561,"LINESTRING (146.069 -15.661, 146.066 -15.645)"
FR199202_VOYAGE.1992-02-06 17:10:00,FR199202,-15.645,146.066,1992-02-06 17:10:00,32,1979,32,3561,"LINESTRING (146.066 -15.645, 146.062 -15.629)"
FR199202_VOYAGE.1992-02-06 17:15:00,FR199202,-15.629,146.062,1992-02-06 17:15:00,32,1988,32,3561,"LINESTRING (146.062 -15.629, 146.058 -15.612)"
FR199202_VOYAGE.1992-02-06 17:20:00,FR199202,-15.612,146.058,1992-02-06 17:20:00,32,2028,32,3561,"LINESTRING (146.058 -15.612, 146.055 -15.596)"
FR199202_VOYAGE.1992-02-06 17:25:00,FR199202,-15.596,146.055,1992-02-06 17:25:00,32,2062,32,3561,"LINESTRING (146.055 -15.596, 146.051 -15.58)"
FR199202_VOYAGE.1992-02-06 17:30:00,FR199202,-15.58,146.051,1992-02-06 17:30:00,32,2090,32,3561,"LINESTRING (146.051 -15.58, 146.047 -15.563)"
FR199202_VOYAGE.1992-02-06 17:35:00,FR199202,-15.563,146.047,1992-02-06 17:35:00,32,2099,32,3561,"LINESTRING (146.047 -15.563, 146.043 -15.547)"
FR199202_VOYAGE.1992-02-06 17:40:00,FR199202,-15.547,146.043,1992-02-06 17:40:00,32,2125,32,3561,"LINESTRING (146.043 -15.547, 146.04 -15.531)"
FR199202_VOYAGE.1992-02-06 17:45:00,FR199202,-15.531,146.04,1992-02-06 17:45:00,32,2154,32,3561,"LINESTRING (146.04 -15.531, 146.036 -15.515)"
FR199202_VOYAGE.1992-02-06 17:50:00,FR199202,-15.515,146.036,1992-02-06 17:50:00,32,2150,32,3561,"LINESTRING (146.036 -15.515, 146.033 -15.499)"
FR199202_VOYAGE.1992-02-06 17:55:00,FR199202,-15.499,146.033,1992-02-06 17:55:00,32,2151,32,3561,"LINESTRING (146.033 -15.499, 146.03 -15.482)"
FR199202_VOYAGE.1992-02-06 18:00:00,FR199202,-15.482,146.03,1992-02-06 18:00:00,32,2167,32,3561,"LINESTRING (146.03 -15.482, 146.026 -15.466)"
FR199202_VOYAGE.1992-02-06 18:05:00,FR199202,-15.466,146.026,1992-02-06 18:05:00,32,2159,32,3561,"LINESTRING (146.026 -15.466, 146.023 -15.45)"
FR199202_VOYAGE.1992-02-06 18:10:00,FR199202,-15.45,146.023,1992-02-06 18:10:00,32,2131,32,3561,"LINESTRING (146.023 -15.45, 146.019 -15.434)"
FR199202_VOYAGE.1992-02-06 18:15:00,FR199202,-15.434,146.019,1992-02-06 18:15:00,32,2143,32,3561,"LINESTRING (146.019 -15.434, 146.016 -15.419)"
FR199202_VOYAGE.1992-02-06 18:20:00,FR199202,-15.419,146.016,1992-02-06 18:20:00,32,2123,32,3561,"LINESTRING (146.016 -15.419, 146.012 -15.403)"
FR199202_VOYAGE.1992-02-06 18:25:00,FR199202,-15.403,146.012,1992-02-06 18:25:00,32,2061,32,3561,"LINESTRING (146.012 -15.403, 146.009 -15.387)"
FR199202_VOYAGE.1992-02-06 18:30:00,FR199202,-15.387,146.009,1992-02-06 18:30:00,32,2052,32,3561,"LINESTRING (146.009 -15.387, 146.005 -15.371)"
FR199202_VOYAGE.1992-02-06 18:35:00,FR199202,-15.371,146.005,1992-02-06 18:35:00,32,2061,32,3561,"LINESTRING (146.005 -15.371, 146.002 -15.354)"
FR199202_VOYAGE.1992-02-06 18:40:00,FR199202,-15.354,146.002,1992-02-06 18:40:00,32,2098,32,3561,"LINESTRING (146.002 -15.354, 145.999 -15.34)"
FR199202_VOYAGE.1992-02-06 18:45:00,FR199202,-15.34,145.999,1992-02-06 18:45:00,32,2149,32,3561,"LINESTRING (145.999 -15.34, 145.996 -15.323)"
FR199202_VOYAGE.1992-02-06 18:50:00,FR199202,-15.323,145.996,1992-02-06 18:50:00,32,2152,32,3561,"LINESTRING (145.996 -15.323, 145.993 -15.308)"
FR199202_VOYAGE.1992-02-06 18:55:00,FR199202,-15.308,145.993,1992-02-06 18:55:00,32,2214,32,3561,"LINESTRING (145.993 -15.308, 145.99 -15.291)"
FR199202_VOYAGE.1992-02-06 19:00:00,FR199202,-15.291,145.99,1992-02-06 19:00:00,32,2231,32,3561,"LINESTRING (145.99 -15.291, 145.987 -15.275)"
FR199202_VOYAGE.1992-02-06 19:05:00,FR199202,-15.275,145.987,1992-02-06 19:05:00,32,2250,32,3561,"LINESTRING (145.987 -15.275, 145.983 -15.26)"
FR199202_VOYAGE.1992-02-06 19:10:00,FR199202,-15.26,145.983,1992-02-06 19:10:00,32,2249,32,3561,"LINESTRING (145.983 -15.26, 145.98 -15.243)"
FR199202_VOYAGE.1992-02-06 19:15:00,FR199202,-15.243,145.98,1992-02-06 19:15:00,32,2252,32,3561,"LINESTRING (145.98 -15.243, 145.977 -15.227)"
FR199202_VOYAGE.1992-02-06 19:20:00,FR199202,-15.227,145.977,1992-02-06 19:20:00,32,2242,32,3561,"LINESTRING (145.977 -15.227, 145.974 -15.211)"
FR199202_VOYAGE.1992-02-06 19:25:00,FR199202,-15.211,145.974,1992-02-06 19:25:00,32,2232,32,3561,"LINESTRING (145.974 -15.211, 145.97 -15.195)"
FR199202_VOYAGE.1992-02-06 19:30:00,FR199202,-15.195,145.97,1992-02-06 19:30:00,32,2243,32,3561,"LINESTRING (145.97 -15.195, 145.967 -15.179)"
FR199202_VOYAGE.1992-02-06 19:35:00,FR199202,-15.179,145.967,1992-02-06 19:35:00,32,2248,32,3561,"LINESTRING (145.967 -15.179, 145.964 -15.164)"
FR199202_VOYAGE.1992-02-06 19:40:00,FR199202,-15.164,145.964,1992-02-06 19:40:00,32,2280,32,3561,"LINESTRING (145.964 -15.164, 145.96 -15.147)"
FR199202_VOYAGE.1992-02-06 19:45:00,FR199202,-15.147,145.96,1992-02-06 19:45:00,32,2288,32,3561,"LINESTRING (145.96 -15.147, 145.957 -15.131)"
FR199202_VOYAGE.1992-02-06 19:50:00,FR199202,-15.131,145.957,1992-02-06 19:50:00,32,2282,32,3561,"LINESTRING (145.957 -15.131, 145.954 -15.115)"
FR199202_VOYAGE.1992-02-06 19:55:00,FR199202,-15.115,145.954,1992-02-06 19:55:00,32,2285,32,3561,"LINESTRING (145.954 -15.115, 145.951 -15.099)"
FR199202_VOYAGE.1992-02-06 20:00:00,FR199202,-15.099,145.951,1992-02-06 20:00:00,32,2267,32,3561,"LINESTRING (145.951 -15.099, 145.947 -15.082)"
FR199202_VOYAGE.1992-02-06 20:05:00,FR199202,-15.082,145.947,1992-02-06 20:05:00,32,2165,32,3561,"LINESTRING (145.947 -15.082, 145.944 -15.067)"